Regional Weather Roundup
Issued by NWS

Home | Current Version | Previous Version | Text Only | Print | Product List | Glossary On
Versions: 1 2 3 4 5 6 7 8 9 10 11 12 13 14 15 16 17 18 19 20 21 22 23 24 25 26 27 28 29 30 31 32 33 34 35 36 37 38 39 40 41 42 43 44 45 46 47 48 49 50
000
ASUS45 KBOU 160307
RWRCO

WEATHER ROUNDUP FOR COLORADO
NATIONAL WEATHER SERVICE DENVER/BOULDER CO
900 PM MDT MON SEP 15 2014

NOTE: "FAIR" INDICATES FEW OR NO CLOUDS BELOW 12000 FEET WITH NO
SIGNIFICANT WEATHER AND/OR OBSTRUCTIONS TO VISIBILITY.

COZ001>005-013-030-031-160400-
...NORTHWEST COLORADO...

CITY           SKY/WX    TMP DP  RH WIND       PRES   REMARKS
CRAIG          CLEAR     58  42  55 CALM      30.25R
HAYDEN         CLEAR     61  36  39 N3        30.28R
MEEKER         CLEAR     59  41  51 CALM      30.28R
MOUNT WERNER   NOT AVBL
STEAMBOAT SPGS MOCLDY    61  40  46 E7        30.30R
WALDEN         PTCLDY    50  32  50 SE7       30.38R
$$

COZ006>008-011-160400-
...WEST CENTRAL VALLEYS...

CITY           SKY/WX    TMP DP  RH WIND       PRES   REMARKS
GRAND JUNCTION CLEAR     69  42  37 E3        30.13R
MONTROSE       CLEAR     68  41  37 S8        30.23R
EAGLE          PTCLDY    63  41  45 E6        30.31R
RIFLE          CLEAR     63  42  46 E8        30.21R
DELTA          CLEAR     72  41  32 E6        30.18R
NUCLA          PTCLDY    72  37  28 E6        30.25R
$$

COZ017>023-064>068-160400-
...SOUTHWEST COLORADO...

CITY           SKY/WX    TMP DP  RH WIND       PRES   REMARKS
DURANGO        CLEAR     70  38  31 CALM      30.28R
CORTEZ         CLEAR     61  44  53 NE5       30.22R
PAGOSA SPRINGS CLOUDY    63  37  37 CALM      30.38R
TELLURIDE      NOT AVBL
WOLF CREEK PAS MOCLDY    45  34  65 W8        30.68S
$$

COZ009-010-012-014-032>034-037-058>063-160400-
...CENTRAL COLORADO...

CITY           SKY/WX    TMP DP  RH WIND       PRES   REMARKS
ASPEN          CLEAR     54  38  54 SW10      30.39R
BUENA VISTA    CLEAR     56  43  62 E6        30.44R
COPPER MTN     PTCLDY    50  28  43 W18       30.68R
BERTHOUD PASS  FAIR      41  39  93 NW14G20   30.71S
COTTONWOOD PAS CLEAR     57  37  47 CALM      30.56R
GUNNISON       PTCLDY    61  36  39 N8        30.38R
KREMMLING      CLEAR     52  41  66 E3        30.36R
LEADVILLE      CLEAR     48  30  49 SE5       30.53R
MONARCH PASS   MOCLDY    43  39  87 NE9       30.78R
SALIDA         PTCLDY    60  47  61 SE6       30.48R
SUNLIGHT       CLEAR     55  32  41 CALM      30.62R
WILKERSON PASS NOT AVBL
$$

COZ069>075-160400-
...SAN LUIS VALLEY/SANGRE DE CRISTO MOUNTAINS...

CITY           SKY/WX    TMP DP  RH WIND       PRES   REMARKS
ALAMOSA        PTCLDY    57  46  66 SW9       30.39R
LA VETA PASS   NOT AVBL
SAGUACHE       NOT AVBL
$$

COZ035-036-038>040-160400-
...NORTHERN COLORADO FRONT RANGE...

CITY           SKY/WX    TMP DP  RH WIND       PRES   REMARKS
DENVER INTL AP CLEAR     62  50  64 S9        30.24R
DMNS CITY PARK   N/A     60  50  69 SE3       30.25R
AURORA         PTCLDY    61  51  68 S8        30.27R
FRONT RANGE AP NOT AVBL
ERIE MUNI ARPT CLEAR     58  48  71 CALM      30.23S
BOULDER MUN AP CLEAR     59  50  72 W3        30.24S
CENTENNIAL     PTCLDY    61  48  62 S8        30.28R
BROOMFIELD     PTCLDY    63  46  55 N8        30.26S
FORT COLLINS   CLEAR     61  48  63 CALM      30.25S
LONGMONT       CLEAR     56  49  75 NW6       30.25S
$$

COZ041-046-047-076>085-087-088-160400-
...PIKES PEAK/PALMER DIVIDE AND SOUTHERN FOOTHILLS...

CITY           SKY/WX    TMP DP  RH WIND       PRES   REMARKS
COLO. SPRINGS  PTCLDY    55  49  80 SE9       30.39R
A. F. ACADEMY  PTCLDY    55  49  78 S8        30.38R
ELLICOTT       NOT AVBL
FALCON         PTCLDY    51  49  92 S8        30.41R
FORT CARSON    PTCLDY    56  51  84 SE9       30.37R
LIMON          CLEAR     53  50  89 S9        30.33R
MONUMENT HILL  PTCLDY    50  46  87 S14       30.36F
TRINIDAD       PTCLDY    53  50  89 SE5       30.35R
$$

COZ042>045-048>051-090-091-160400-
...NORTHEAST COLORADO...

CITY           SKY/WX    TMP DP  RH WIND       PRES   REMARKS
GREELEY ARPT   CLEAR     57  48  72 E6        30.23S
AKRON          CLEAR     55  50  83 S14G24    30.25S
BURLINGTON     MOCLDY    55  50  83 S7        30.30R
WRAY           CLEAR     55  47  76 SE8       30.26R
STERLING       CLEAR     59  54  82 S6        30.22S
HOLYOKE        CLEAR     54  46  76 S7        30.25S
FORT MORGAN    CLEAR     56  51  81 SE9       30.24S
$$

COZ086-089-092>099-160400-
...SOUTHEAST COLORADO...

CITY           SKY/WX    TMP DP  RH WIND       PRES   REMARKS
PUEBLO         CLEAR     60  53  77 SE7       30.31R
LA JUNTA       CLOUDY    61  52  72 S3        30.31R
LAMAR          CLOUDY    62  52  69 S5        30.29R
SPRINGFIELD      N/A     56  53  90 E3        30.32S
$$


USA.gov is the U.S. government's official web portal to all federal, state and local government web resources and services.